[[{"header":{"parameterUnit":"m.s-1","parameterCategory":1,"la1":30.2991,"la2":30.254,"lo1":-89.0895,"lo2":-89.0444,"dy":0.0017,"dx":0.0017,"nx":28,"ny":28,"refTime":"2023-09-19T03:00:00:Z","depth":0,"parameterNumber":2,"parameterNumberName":"U-component_of_WINDS"},"data":[0,0,0,0,0,0,0,0,0,0,0,0,0,0,0,0,0,0,0,0,0,0,0,0,0,0,0,0,0,0,0,0,0,0,0,0,0,0,0,0,0,0,0,0,0,0,0,0,0,0,0,0,0,0,0,0,0,0,1.6251,1.6252,0,1.6308,1.6308,1.6309,1.6284,1.6282,1.6281,1.628,1.6334,1.6337,1.634,0,0,0,0,0,0,0,0,0,0,0,0,0,1.6116,1.6118,1.6251,1.6252,1.6252,1.6308,1.6308,1.6309,1.6284,1.6282,1.6281,1.6279,1.6334,1.6337,1.634,0,0,0,0,0,0,0,0,0,0,0,0,0,1.6174,1.6119,1.6251,1.6247,1.6247,1.6308,1.6308,1.6309,1.6284,1.6282,1.628,1.6278,1.6332,1.6336,1.6341,1.6408,0,0,1.6353,1.6355,0,0,0,0,0,0,0,0,1.617,1.6179,1.6246,1.6247,1.6247,1.6287,1.6281,1.6342,1.6285,1.627,1.628,1.6277,1.632,1.6325,1.634,1.641,1.6413,1.6354,1.6356,1.6358,1.6359,0,0,0,0,0,0,0,1.6166,1.6176,1.6273,1.6247,1.6248,1.624,1.6246,1.6292,1.6306,1.6271,1.6269,1.6277,1.632,1.6336,1.6341,1.6414,1.6353,1.6357,1.636,1.6361,1.6538,1.654,0,0,0,0,0,0,1.6163,1.6173,1.6271,1.6275,1.6203,1.6244,1.6251,1.6276,1.6305,1.6308,1.6278,1.6275,1.633,1.6336,1.6343,1.6421,1.6358,1.6362,1.6364,1.6536,1.6538,1.6541,0,0,0,0,0,0,1.616,1.6172,1.6269,1.6223,1.6235,1.6249,1.6277,1.6278,1.6295,1.6311,1.6313,1.6293,1.6329,1.6337,1.6391,1.6422,1.6364,1.6367,1.6533,1.6536,1.654,1.6578,0,0,0,0,0,0,1.6156,1.6171,1.6198,1.6224,1.6238,1.6318,1.6279,1.6281,1.6302,1.6299,1.6325,1.6327,1.6328,1.6385,1.6395,1.6427,1.6371,1.653,1.6535,1.6538,1.6574,1.6583,1.659,0,0,0,0,0,1.6152,1.6207,1.62,1.6212,1.6272,1.632,1.6327,1.6328,1.6305,1.6331,1.6341,1.6327,1.6418,1.6391,1.6402,1.6435,1.6528,1.6533,1.6538,1.6571,1.6581,1.659,0,0,0,0,0,0,1.6183,1.621,1.6202,1.6268,1.6292,1.6316,1.6348,1.6339,1.6369,1.6364,1.6362,1.6369,1.6424,1.6436,1.6405,1.65,1.6469,1.6477,1.649,1.65,1.6508,1.6502,1.6374,0,0,0,0,0,1.6198,1.6236,1.6257,1.6313,1.6325,1.6335,1.6356,1.6354,1.6378,1.6388,1.6402,1.6425,1.6458,1.648,1.6512,1.6577,1.658,1.6605,1.6613,1.6619,1.6624,1.6656,1.6666,1.6557,1.6557,1.6557,0,0,1.6228,1.6248,1.6272,1.632,1.6338,1.6375,1.6344,1.6385,1.6412,1.6394,1.6445,1.6456,1.6481,1.654,1.6566,1.6551,1.6655,1.6625,1.663,1.6632,1.6662,1.6672,1.6681,1.656,1.656,1.6559,0,0,1.6302,1.6322,1.6369,1.6388,1.6416,1.6422,1.6433,1.6458,1.6465,1.6517,1.6503,1.6535,1.6593,1.6611,1.6627,1.6706,1.6693,1.6717,1.6756,1.6787,1.6795,1.6803,1.6827,1.6837,1.6723,1.6723,1.6723,0,1.6336,1.6393,1.6394,1.6436,1.6456,1.6443,1.6488,1.6506,1.6543,1.6556,1.654,1.6611,1.6627,1.6688,1.6707,1.6722,1.6733,1.6713,1.6794,1.6802,1.6809,1.6832,1.6842,1.6726,1.6725,1.6725,1.6725,0,1.6431,1.6471,1.6505,1.6541,1.6565,1.6609,1.6615,1.6639,1.6635,1.6642,1.6693,1.6713,1.6747,1.6762,1.6758,1.6821,1.681,1.6794,1.6762,1.6821,1.6843,1.6853,1.6729,1.6728,1.6727,1.6727,0,0,1.6525,1.6561,1.6573,1.6588,1.6618,1.6647,1.669,1.6724,1.6743,1.6769,1.6802,1.6851,1.6836,1.6854,1.6853,1.688,1.6937,1.686,1.686,1.6871,1.7004,1.7013,1.7024,1.693,1.6931,1.6933,1.7,0,1.6598,1.6673,1.6675,1.6743,1.6777,1.6764,1.6801,1.6821,1.6829,1.6858,1.6866,1.69,1.6879,1.6889,1.6916,1.6925,1.6963,1.692,1.6957,1.6959,1.6949,1.7036,1.7047,1.711,1.7009,1.7011,1.7012,0,1.6694,1.6722,1.6793,1.6816,1.683,1.6863,1.6893,1.6922,1.6945,1.6948,1.6969,1.6962,1.7003,1.6972,1.7026,1.6997,1.7012,1.7019,1.7021,1.7022,1.6987,1.7036,1.7131,1.7139,1.7026,1.7025,1.7024,0,1.675,1.6807,1.6856,1.687,1.6898,1.6921,1.6933,1.6954,1.6974,1.7,1.7012,1.7042,1.7058,1.7081,1.7082,1.706,1.7135,1.7106,1.7137,1.7137,1.7151,1.7149,1.7246,1.7167,1.7166,1.7166,1.7166,0,1.683,1.6873,1.6882,1.6912,1.6959,1.696,1.7006,1.7016,1.7035,1.7064,1.7056,1.7084,1.7086,1.7114,1.7115,1.7158,1.7166,1.7168,1.7167,1.7167,1.7166,1.7175,1.7169,1.7169,1.7168,1.7168,1.7167,0,1.6901,1.6909,1.696,1.6983,1.6989,1.7023,1.7041,1.7068,1.7075,1.7113,1.7122,1.7132,1.7164,1.7169,1.7207,1.7207,1.7258,1.7254,1.725,1.7248,1.7278,1.7274,1.7381,1.7393,1.7309,1.731,1.731,0,1.6949,1.6982,1.7008,1.7027,1.7041,1.7074,1.7093,1.7096,1.7116,1.7143,1.7167,1.7199,1.7224,1.7276,1.7285,1.7314,1.7309,1.7344,1.7313,1.7311,1.7305,1.7302,1.7304,1.7349,1.735,1.7351,1.7352,0,1.7034,1.7036,1.7065,1.7095,1.7119,1.7143,1.7166,1.7182,1.7187,1.721,1.7243,1.7263,1.7302,1.7332,1.736,1.7371,1.7361,1.7362,1.737,1.7368,1.7363,1.7363,1.7263,1.7359,1.7358,1.7357,1.7357,1.7357,1.7092,1.712,1.7141,1.7174,1.7191,1.7212,1.7238,1.7248,1.7276,1.7308,1.7307,1.7343,1.7362,1.7399,1.7412,1.7439,1.7427,1.7439,1.7442,1.7444,1.7445,1.7362,1.7444,1.7444,1.7444,1.7444,1.7443,0,1.7173,1.7186,1.7216,1.7248,1.7272,1.7263,1.7287,1.7308,1.734,1.7359,1.7384,1.7421,1.7451,1.7463,1.7491,1.7509,1.7505,1.7516,1.7513,1.7515,1.7456,1.7445,1.7519,1.7519,1.7519,1.7519,1.7519,1.7519,1.7218,1.7262,1.7267,1.7319,1.7332,1.7367,1.7381,1.7399,1.7415,1.7457,1.7481,1.7489,1.7505,1.7534,1.756,1.7562,1.7571,1.7584,1.7584,1.7528,1.752,1.7513,1.7502,1.7587,1.7587,1.7641,1.7641,1.7641]},{"header":{"parameterUnit":"m.s-1","parameterCategory":1,"la1":30.2991,"la2":30.254,"lo1":-89.0895,"lo2":-89.0444,"dy":0.0017,"dx":0.0017,"nx":28,"ny":28,"refTime":"2023-09-19T03:00:00:Z","depth":0,"parameterNumber":3,"parameterNumberName":"V-component_of_WINDS"},"data":[0,0,0,0,0,0,0,0,0,0,0,0,0,0,0,0,0,0,0,0,0,0,0,0,0,0,0,0,0,0,0,0,0,0,0,0,0,0,0,0,0,0,0,0,0,0,0,0,0,0,0,0,0,0,0,0,0,0,3.4422,3.4421,0,3.4367,3.4367,3.4366,3.4296,3.4295,3.4294,3.4293,3.4235,3.4234,3.4234,0,0,0,0,0,0,0,0,0,0,0,0,0,3.4461,3.4461,3.4422,3.4421,3.442,3.4367,3.4367,3.4366,3.4296,3.4295,3.4293,3.4292,3.4235,3.4234,3.4234,0,0,0,0,0,0,0,0,0,0,0,0,0,3.4429,3.4461,3.4422,3.4379,3.4375,3.4367,3.4367,3.4366,3.4297,3.4295,3.4293,3.4292,3.4235,3.4234,3.4233,3.4263,0,0,3.4231,3.4231,0,0,0,0,0,0,0,0,3.4431,3.4428,3.4386,3.4382,3.4377,3.4337,3.4359,3.4331,3.4297,3.4326,3.4293,3.4291,3.427,3.4266,3.4259,3.426,3.4257,3.4231,3.4231,3.423,3.423,0,0,0,0,0,0,0,3.4433,3.443,3.44,3.4386,3.438,3.4361,3.4355,3.4353,3.4308,3.4324,3.4318,3.4313,3.4267,3.426,3.4258,3.4257,3.4231,3.423,3.423,3.423,3.4272,3.4274,0,0,0,0,0,0,3.4442,3.4432,3.4402,3.4398,3.4401,3.4362,3.4355,3.4351,3.4308,3.43,3.4314,3.431,3.4262,3.4259,3.4255,3.4282,3.423,3.423,3.4229,3.4271,3.4273,3.4274,0,0,0,0,0,0,3.4443,3.444,3.4404,3.4414,3.4408,3.4363,3.436,3.4351,3.4344,3.4301,3.4292,3.4316,3.4261,3.4256,3.426,3.4279,3.4229,3.4229,3.4269,3.4271,3.4273,3.434,0,0,0,0,0,0,3.4445,3.4441,3.4453,3.4415,3.4407,3.4412,3.4361,3.4351,3.4344,3.4337,3.43,3.4293,3.4259,3.4262,3.4259,3.4278,3.4228,3.4267,3.427,3.4273,3.4335,3.4344,3.4351,0,0,0,0,0,3.4447,3.4474,3.4454,3.4451,3.4422,3.4413,3.4409,3.437,3.4346,3.4356,3.4327,3.4294,3.4278,3.4263,3.426,3.4278,3.4265,3.4269,3.4273,3.4332,3.4342,3.4351,0,0,0,0,0,0,3.4516,3.4469,3.4446,3.4462,3.4442,3.4401,3.4413,3.4383,3.4369,3.4364,3.4316,3.4308,3.4317,3.4298,3.4282,3.4301,3.4267,3.427,3.4313,3.4322,3.433,3.4333,3.4227,0,0,0,0,0,3.4534,3.4532,3.449,3.4509,3.45,3.4459,3.4453,3.4425,3.4402,3.4393,3.4365,3.4343,3.4332,3.4327,3.4315,3.4333,3.4321,3.4344,3.4352,3.4358,3.4361,3.4364,3.4372,3.4286,3.4286,3.4286,0,0,3.457,3.4543,3.4545,3.4522,3.4503,3.45,3.4452,3.4452,3.4448,3.4393,3.4394,3.4373,3.4344,3.4354,3.4357,3.4338,3.4382,3.4363,3.4368,3.4367,3.4368,3.4376,3.4383,3.4288,3.4288,3.4288,0,0,3.4632,3.4614,3.4625,3.4607,3.4579,3.4551,3.4554,3.4517,3.45,3.4501,3.4458,3.4452,3.4437,3.4417,3.4405,3.4457,3.4424,3.4455,3.4495,3.4498,3.4505,3.4511,3.4525,3.4531,3.4458,3.4458,3.4458,0,3.468,3.4675,3.4635,3.4636,3.4625,3.4576,3.4585,3.4569,3.4538,3.4531,3.4511,3.4488,3.4466,3.4468,3.448,3.4473,3.4472,3.4458,3.4508,3.4513,3.4517,3.4531,3.4537,3.4461,3.4461,3.4461,3.446,0,3.4733,3.473,3.4742,3.4713,3.4704,3.471,3.4668,3.4663,3.4636,3.4609,3.4608,3.4579,3.4559,3.4558,3.4532,3.4555,3.4544,3.4517,3.4481,3.453,3.4541,3.4546,3.4467,3.4465,3.4464,3.4463,0,0,3.4838,3.4785,3.479,3.4774,3.4738,3.4734,3.4736,3.4716,3.4711,3.4692,3.4689,3.4676,3.4649,3.4636,3.4606,3.461,3.4647,3.4582,3.458,3.4591,3.4666,3.4685,3.4691,3.4626,3.4627,3.4628,3.4667,0,3.4891,3.4892,3.4854,3.4864,3.4859,3.481,3.4811,3.4788,3.4763,3.4752,3.4724,3.4713,3.4682,3.4672,3.4674,3.4643,3.4661,3.464,3.462,3.462,3.4626,3.4698,3.4718,3.4757,3.4672,3.4673,3.4673,0,3.4953,3.4936,3.4945,3.4906,3.4902,3.4904,3.488,3.4873,3.4844,3.4825,3.4808,3.4774,3.477,3.4738,3.4729,3.4715,3.4705,3.4688,3.4689,3.4683,3.4648,3.4691,3.4769,3.4773,3.4681,3.468,3.468,0,3.5023,3.5003,3.5005,3.4993,3.4949,3.495,3.4931,3.4901,3.489,3.487,3.4861,3.4841,3.4829,3.4812,3.4772,3.4754,3.4767,3.4732,3.4748,3.4749,3.4751,3.4751,3.4825,3.475,3.475,3.475,3.475,0,3.5084,3.5091,3.5035,3.5036,3.5041,3.4997,3.5003,3.4979,3.4952,3.4945,3.4903,3.4897,3.4846,3.4834,3.4803,3.4798,3.4794,3.4776,3.4767,3.4778,3.478,3.4768,3.4763,3.4751,3.4751,3.4751,3.4751,0,3.5163,3.5126,3.5124,3.5082,3.5071,3.5076,3.5038,3.5036,3.5007,3.4999,3.4995,3.4949,3.4932,3.4891,3.4864,3.4842,3.4844,3.483,3.4854,3.4848,3.4864,3.4862,3.4931,3.4936,3.4862,3.4862,3.4863,0,3.5203,3.5207,3.5164,3.5157,3.5139,3.5129,3.5117,3.5074,3.5063,3.5029,3.503,3.5009,3.4991,3.4965,3.4928,3.4905,3.4888,3.4914,3.4885,3.4894,3.4884,3.4883,3.4881,3.492,3.4921,3.4922,3.4922,0,3.5276,3.5257,3.5243,3.5221,3.5209,3.519,3.5168,3.5164,3.5115,3.5104,3.5086,3.5072,3.5043,3.5021,3.4993,3.497,3.4937,3.4932,3.4934,3.4944,3.4956,3.4945,3.4868,3.493,3.493,3.4929,3.4929,3.4928,3.5334,3.5333,3.5302,3.5287,3.5266,3.5246,3.5241,3.5211,3.5196,3.5169,3.5144,3.5128,3.5095,3.5053,3.5033,3.5017,3.5001,3.5004,3.5004,3.5005,3.5008,3.4961,3.5012,3.5012,3.5012,3.5012,3.5011,0,3.5401,3.5379,3.5365,3.5336,3.5323,3.5294,3.5268,3.5258,3.5244,3.5218,3.52,3.5177,3.5155,3.5116,3.5091,3.5086,3.5069,3.508,3.5078,3.5073,3.5027,3.5026,3.5093,3.5093,3.5093,3.5093,3.5093,3.5093,3.5435,3.5431,3.5409,3.5393,3.537,3.5354,3.5341,3.5321,3.5299,3.5276,3.5258,3.5234,3.52,3.5172,3.5149,3.5138,3.5129,3.5144,3.5128,3.5085,3.5077,3.5069,3.5068,3.5143,3.5143,3.5174,3.5175,3.5175]}]]